2015-11-10 00:00:58 r, 20.10m,0000000001Hz,0000594127c,0000001.289s, 015.7C,00002191
2015-11-10 00:10:59 r, 20.21m,0000000001Hz,0000663287c,0000001.439s, 015.7C,00002191
2015-11-10 00:20:59 r, 20.28m,0000000001Hz,0000702525c,0000001.525s, 015.4C,00002191
2015-11-10 00:30:58 r, 20.10m,0000000001Hz,0000600115c,0000001.302s, 015.4C,00002191
2015-11-10 00:40:59 r, 20.20m,0000000000Hz,0000655244c,0000001.422s, 015.4C,00002191
2015-11-10 00:51:00 r, 20.22m,0000000001Hz,0000667124c,0000001.448s, 015.1C,00002191
2015-11-10 01:00:58 r, 20.18m,0000000001Hz,0000646078c,0000001.402s, 015.1C,00002191
2015-11-10 01:10:58 r, 20.27m,0000000001Hz,0000699087c,0000001.517s, 015.1C,00002191
2015-11-10 01:20:59 r, 20.29m,0000000001Hz,0000711413c,0000001.544s, 015.1C,00002191
2015-11-10 01:30:58 r, 20.32m,0000000001Hz,0000729823c,0000001.584s, 015.1C,00002191
2015-11-10 01:40:58 r, 20.31m,0000000001Hz,0000721266c,0000001.565s, 015.1C,00002191
2015-11-10 01:50:58 r, 20.24m,0000000000Hz,0000676688c,0000001.469s, 015.1C,00002191
2015-11-10 02:00:58 r, 20.35m,0000000001Hz,0000749880c,0000001.627s, 015.1C,00002191
2015-11-10 02:10:58 r, 20.42m,0000000001Hz,0000797841c,0000001.731s, 015.1C,00002191
2015-11-10 02:20:59 r, 20.26m,0000000000Hz,0000690985c,0000001.500s, 015.1C,00002191
2015-11-10 02:30:58 r, 20.28m,0000000000Hz,0000704344c,0000001.529s, 015.1C,00002191
2015-11-10 02:40:58 r, 20.24m,0000000001Hz,0000681574c,0000001.479s, 014.8C,00002191
2015-11-10 02:50:58 r, 20.40m,0000000001Hz,0000775913c,0000001.684s, 014.8C,00002191
2015-11-10 03:00:58 r, 20.41m,0000000000Hz,0000789337c,0000001.713s, 014.8C,00002191
2015-11-10 03:10:58 r, 20.49m,0000000001Hz,0000843781c,0000001.831s, 014.8C,00002191
2015-11-10 03:20:58 r, 20.35m,0000000001Hz,0000748718c,0000001.625s, 014.8C,00002191
2015-11-10 03:30:58 r, 20.47m,0000000000Hz,0000829722c,0000001.801s, 014.8C,00002191
2015-11-10 03:40:58 r, 20.52m,0000000000Hz,0000868740c,0000001.885s, 014.8C,00002191
2015-11-10 03:51:00 r, 20.51m,0000000001Hz,0000866721c,0000001.881s, 015.1C,00002191
2015-11-10 04:00:58 r, 20.70m,0000000000Hz,0001025027c,0000002.224s, 015.1C,00002191
2015-11-10 04:10:58 r, 20.67m,0000000000Hz,0000996317c,0000002.162s, 015.1C,00002191
2015-11-10 04:21:00 r, 20.71m,0000000000Hz,0001034054c,0000002.244s, 015.1C,00002191
2015-11-10 04:30:58 r, 20.61m,0000000001Hz,0000946773c,0000002.055s, 015.1C,00002191
2015-11-10 04:40:58 r, 20.59m,0000000000Hz,0000926480c,0000002.011s, 015.1C,00002191
2015-11-10 04:51:00 r, 20.56m,0000000000Hz,0000905615c,0000001.965s, 015.1C,00002191
2015-11-10 05:00:58 r, 20.75m,0000000001Hz,0001081019c,0000002.346s, 015.1C,00002191
2015-11-10 05:10:58 r, 20.34m,0000000001Hz,0000742276c,0000001.611s, 015.1C,00002191
2015-11-10 05:20:59 r, 20.23m,0000000001Hz,0000672269c,0000001.459s, 015.1C,00002191
2015-11-10 05:30:59 r, 20.22m,0000000001Hz,0000665608c,0000001.444s, 015.1C,00002191
2015-11-10 05:40:59 r, 20.32m,0000000001Hz,0000727034c,0000001.578s, 015.1C,00002191
2015-11-10 05:51:00 r, 20.39m,0000000000Hz,0000781280c,0000001.695s, 015.1C,00002191
2015-11-10 06:00:58 r, 20.41m,0000000001Hz,0000790178c,0000001.715s, 015.1C,00002191
2015-11-10 06:10:58 r, 20.11m,0000000001Hz,0000603735c,0000001.310s, 015.1C,00002191
2015-11-10 06:20:59 r, 19.35m,0000000001Hz,0000300382c,0000000.652s, 015.4C,00002191
2015-11-10 06:30:58 r, 18.10m,0000000005Hz,0000094770c,0000000.206s, 015.4C,00002191
2015-11-10 06:40:58 r, 16.47m,0000000022Hz,0000021129c,0000000.046s, 015.4C,00002191
2015-11-10 06:50:58 r, 14.59m,0000000122Hz,0000003765c,0000000.008s, 015.4C,00002191
2015-11-10 07:00:58 r, 12.64m,0000000747Hz,0000000000c,0000000.000s, 015.7C,00002191
2015-11-10 07:10:58 r, 10.61m,0000004833Hz,0000000000c,0000000.000s, 015.7C,00002191
2015-11-10 07:20:58 r, 08.94m,0000022523Hz,0000000000c,0000000.000s, 015.7C,00002191
2015-11-10 07:30:59 r, 07.84m,0000061940Hz,0000000000c,0000000.000s, 015.7C,00002191
2015-11-10 07:40:59 r, 07.11m,0000121735Hz,0000000000c,0000000.000s, 016.1C,00002191
2015-11-10 07:50:59 r, 06.39m,0000234827Hz,0000000000c,0000000.000s, 016.1C,00002191
2015-11-10 08:00:58 r, 05.94m,0000357344Hz,0000000000c,0000000.000s, 016.1C,00002191
2015-11-10 08:10:58 r, 00.00m,0000596703Hz,0000000000c,0000000.000s, 016.4C,00002191
2015-11-10 08:20:58 r, 00.00m,0000596702Hz,0000000000c,0000000.000s, 016.7C,00002191
2015-11-10 08:30:58 r, 00.00m,0000596744Hz,0000000000c,0000000.000s, 016.7C,00002191
2015-11-10 08:40:59 r, 00.00m,0000596729Hz,0000000000c,0000000.000s, 017.0C,00002191
2015-11-10 08:51:00 r, 00.00m,0000596795Hz,0000000000c,0000000.000s, 017.0C,00002191
2015-11-10 09:00:58 r, 00.00m,0000596643Hz,0000000000c,0000000.000s, 017.0C,00002191
2015-11-10 09:10:58 r, 00.00m,0000596616Hz,0000000000c,0000000.000s, 017.4C,00002191
2015-11-10 09:20:58 r, 00.00m,0000596655Hz,0000000000c,0000000.000s, 017.4C,00002191
2015-11-10 09:30:58 r, 00.00m,0000596448Hz,0000000000c,0000000.000s, 017.7C,00002191
2015-11-10 09:40:58 r, 00.00m,0000596509Hz,0000000000c,0000000.000s, 018.0C,00002191
2015-11-10 09:50:58 r, 00.00m,0000596664Hz,0000000000c,0000000.000s, 018.0C,00002191
2015-11-10 10:00:58 r, 00.00m,0000596543Hz,0000000000c,0000000.000s, 018.0C,00002191
2015-11-10 10:10:58 r, 00.00m,0000596471Hz,0000000000c,0000000.000s, 018.0C,00002191
2015-11-10 10:20:58 r, 00.00m,0000596674Hz,0000000000c,0000000.000s, 018.0C,00002191
2015-11-10 10:30:58 r, 00.00m,0000596589Hz,0000000000c,0000000.000s, 018.0C,00002191
2015-11-10 10:40:59 r, 00.00m,0000596563Hz,0000000000c,0000000.000s, 018.0C,00002191
2015-11-10 10:50:58 r, 00.00m,0000596603Hz,0000000000c,0000000.000s, 018.3C,00002191
2015-11-10 11:00:58 r, 00.00m,0000596595Hz,0000000000c,0000000.000s, 018.3C,00002191
2015-11-10 11:10:59 r, 00.00m,0000596610Hz,0000000000c,0000000.000s, 018.3C,00002191
2015-11-10 11:20:58 r, 00.00m,0000596693Hz,0000000000c,0000000.000s, 018.6C,00002191
2015-11-10 11:30:58 r, 00.00m,0000596710Hz,0000000000c,0000000.000s, 018.6C,00002191
2015-11-10 11:40:58 r, 00.00m,0000596643Hz,0000000000c,0000000.000s, 018.6C,00002191
2015-11-10 11:50:58 r, 00.00m,0000596666Hz,0000000000c,0000000.000s, 018.6C,00002191
2015-11-10 12:01:00 r, 00.00m,0000596584Hz,0000000000c,0000000.000s, 018.6C,00002191
2015-11-10 12:10:58 r, 00.00m,0000596659Hz,0000000000c,0000000.000s, 018.6C,00002191
2015-11-10 12:20:58 r, 00.00m,0000596581Hz,0000000000c,0000000.000s, 018.6C,00002191
2015-11-10 12:30:58 r, 00.00m,0000596684Hz,0000000000c,0000000.000s, 018.6C,00002191
2015-11-10 12:40:58 r, 00.00m,0000596615Hz,0000000000c,0000000.000s, 018.6C,00002191
2015-11-10 12:50:58 r, 00.00m,0000596636Hz,0000000000c,0000000.000s, 018.3C,00002191
2015-11-10 13:01:00 r, 00.00m,0000596676Hz,0000000000c,0000000.000s, 018.6C,00002191
2015-11-10 13:10:59 r, 00.00m,0000596604Hz,0000000000c,0000000.000s, 018.6C,00002191
2015-11-10 13:20:58 r, 00.00m,0000596611Hz,0000000000c,0000000.000s, 018.3C,00002191
2015-11-10 13:30:58 r, 00.00m,0000596666Hz,0000000000c,0000000.000s, 018.3C,00002191
2015-11-10 13:40:58 r, 00.00m,0000596708Hz,0000000000c,0000000.000s, 018.3C,00002191
2015-11-10 13:50:58 r, 00.00m,0000596572Hz,0000000000c,0000000.000s, 018.3C,00002191
2015-11-10 14:00:59 r, 00.00m,0000596649Hz,0000000000c,0000000.000s, 018.3C,00002191
2015-11-10 14:10:58 r, 00.00m,0000596497Hz,0000000000c,0000000.000s, 018.3C,00002191
2015-11-10 14:20:59 r, 00.00m,0000596707Hz,0000000000c,0000000.000s, 018.3C,00002191
2015-11-10 14:30:58 r, 00.00m,0000596635Hz,0000000000c,0000000.000s, 018.3C,00002191
2015-11-10 14:40:58 r, 00.00m,0000596578Hz,0000000000c,0000000.000s, 018.0C,00002191
2015-11-10 14:50:58 r, 00.00m,0000596721Hz,0000000000c,0000000.000s, 017.7C,00002191
2015-11-10 15:01:00 r, 05.99m,0000341624Hz,0000000000c,0000000.000s, 017.4C,00002191
2015-11-10 15:10:58 r, 05.82m,0000397965Hz,0000000000c,0000000.000s, 017.4C,00002191
2015-11-10 15:20:58 r, 00.00m,0000512210Hz,0000000000c,0000000.000s, 017.0C,00002191
2015-11-10 15:31:00 r, 05.99m,0000340052Hz,0000000000c,0000000.000s, 017.0C,00002191
2015-11-10 15:40:58 r, 06.17m,0000287877Hz,0000000000c,0000000.000s, 016.7C,00002191
2015-11-10 15:50:59 r, 06.39m,0000235546Hz,0000000000c,0000000.000s, 017.0C,00002191
2015-11-10 16:00:58 r, 06.44m,0000224290Hz,0000000000c,0000000.000s, 016.7C,00002191
2015-11-10 16:10:59 r, 06.60m,0000193735Hz,0000000000c,0000000.000s, 016.7C,00002191
2015-11-10 16:20:59 r, 07.04m,0000129429Hz,0000000000c,0000000.000s, 016.4C,00002191
2015-11-10 16:30:59 r, 07.36m,0000096757Hz,0000000000c,0000000.000s, 016.1C,00002191
2015-11-10 16:40:58 r, 07.81m,0000063826Hz,0000000000c,0000000.000s, 016.1C,00002191
2015-11-10 16:50:58 r, 08.42m,0000036099Hz,0000000000c,0000000.000s, 016.1C,00002191
2015-11-10 17:00:59 r, 09.65m,0000011625Hz,0000000000c,0000000.000s, 016.1C,00002191
2015-11-10 17:10:59 r, 11.06m,0000003189Hz,0000000000c,0000000.000s, 015.7C,00002191
2015-11-10 17:20:59 r, 13.00m,0000000532Hz,0000000000c,0000000.000s, 016.1C,00002191
2015-11-10 17:30:58 r, 14.90m,0000000092Hz,0000005010c,0000000.011s, 015.7C,00002191
2015-11-10 17:40:59 r, 16.69m,0000000018Hz,0000025901c,0000000.056s, 015.7C,00002191
2015-11-10 17:50:58 r, 18.47m,0000000004Hz,0000134559c,0000000.292s, 015.7C,00002191
2015-11-10 18:00:59 r, 19.15m,0000000002Hz,0000250637c,0000000.544s, 015.7C,00002191
2015-11-10 18:10:58 r, 19.69m,0000000001Hz,0000407984c,0000000.885s, 015.4C,00002191
2015-11-10 18:20:58 r, 19.81m,0000000001Hz,0000456116c,0000000.990s, 015.4C,00002191
2015-11-10 18:30:58 r, 20.05m,0000000001Hz,0000570285c,0000001.238s, 015.4C,00002191
2015-11-10 18:40:58 r, 19.95m,0000000001Hz,0000521356c,0000001.131s, 015.4C,00002191
2015-11-10 18:50:59 r, 19.94m,0000000001Hz,0000514510c,0000001.117s, 015.4C,00002191
2015-11-10 19:00:58 r, 19.73m,0000000001Hz,0000424482c,0000000.921s, 015.4C,00002191
2015-11-10 19:10:58 r, 19.85m,0000000001Hz,0000471491c,0000001.023s, 015.4C,00002191
2015-11-10 19:20:58 r, 19.88m,0000000001Hz,0000484626c,0000001.052s, 015.4C,00002191
2015-11-10 19:31:00 r, 19.96m,0000000000Hz,0000525107c,0000001.140s, 015.4C,00002191
2015-11-10 19:40:58 r, 19.82m,0000000001Hz,0000459929c,0000000.998s, 015.4C,00002191
2015-11-10 19:50:58 r, 19.87m,0000000001Hz,0000481021c,0000001.044s, 015.1C,00002191
2015-11-10 20:00:58 r, 19.98m,0000000001Hz,0000533778c,0000001.158s, 015.1C,00002191
2015-11-10 20:10:58 r, 19.99m,0000000001Hz,0000539561c,0000001.171s, 015.1C,00002191
2015-11-10 20:20:59 r, 19.96m,0000000001Hz,0000526876c,0000001.143s, 015.1C,00002191
2015-11-10 20:31:01 r, 19.95m,0000000001Hz,0000521165c,0000001.131s, 015.1C,00002191
2015-11-10 20:40:58 r, 20.00m,0000000001Hz,0000545271c,0000001.183s, 014.8C,00002191
2015-11-10 20:50:58 r, 19.82m,0000000001Hz,0000461630c,0000001.002s, 014.8C,00002191
2015-11-10 21:00:59 r, 19.83m,0000000001Hz,0000466345c,0000001.012s, 014.8C,00002191
2015-11-10 21:10:58 r, 19.81m,0000000001Hz,0000455968c,0000000.990s, 014.8C,00002191
2015-11-10 21:20:58 r, 19.89m,0000000001Hz,0000489708c,0000001.063s, 014.8C,00002191
2015-11-10 21:30:59 r, 19.91m,0000000001Hz,0000500113c,0000001.085s, 014.8C,00002191
2015-11-10 21:40:59 r, 19.77m,0000000001Hz,0000439623c,0000000.954s, 014.8C,00002191
2015-11-10 21:50:58 r, 19.84m,0000000001Hz,0000468560c,0000001.017s, 014.8C,00002191
2015-11-10 22:00:58 r, 19.79m,0000000001Hz,0000449287c,0000000.975s, 014.8C,00002191
2015-11-10 22:10:58 r, 19.68m,0000000001Hz,0000405313c,0000000.880s, 014.8C,00002191
2015-11-10 22:20:58 r, 19.80m,0000000001Hz,0000451388c,0000000.980s, 014.8C,00002191
2015-11-10 22:30:59 r, 19.94m,0000000001Hz,0000515438c,0000001.119s, 014.8C,00002191
2015-11-10 22:40:59 r, 19.97m,0000000000Hz,0000528622c,0000001.147s, 014.8C,00002191
2015-11-10 22:50:59 r, 19.93m,0000000001Hz,0000511101c,0000001.109s, 014.8C,00002191
2015-11-10 23:00:58 r, 19.89m,0000000001Hz,0000490534c,0000001.065s, 014.8C,00002191
2015-11-10 23:10:59 r, 19.83m,0000000001Hz,0000465637c,0000001.010s, 014.8C,00002191
2015-11-10 23:20:58 r, 19.98m,0000000001Hz,0000532891c,0000001.156s, 014.8C,00002191
2015-11-10 23:30:58 r, 19.93m,0000000001Hz,0000509618c,0000001.106s, 014.8C,00002191
2015-11-10 23:40:58 r, 19.95m,0000000001Hz,0000520141c,0000001.129s, 014.8C,00002191
2015-11-10 23:50:58 r, 19.93m,0000000001Hz,0000508772c,0000001.104s, 014.8C,00002191
